Regional Weather Roundup
Issued by NWS

Home | Current Version | Previous Version | Text Only | Print | Product List | Glossary Off
Versions: 1 2 3 4 5 6 7 8 9 10 11 12 13 14 15 16 17 18 19 20 21 22 23 24 25 26 27 28 29 30 31 32 33 34 35 36 37 38 39 40 41 42 43 44 45 46 47 48 49 50

000
ASUS43 KMPX 030610
RWRMN
WEATHER ROUNDUP FOR MINNESOTA
NATIONAL WEATHER SERVICE TWIN CITIES/CHANHASSEN MN
100 AM CDT WED JUN 03 2015


NOTE: "FAIR" INDICATES FEW OR NO CLOUDS BELOW 12,000 FEET WITH NO
SIGNIFICANT WEATHER AND/OR OBSTRUCTIONS TO VISIBILITY. N/A MEANS
CURRENT SKY AND/OR WEATHER CONDITIONS ARE NOT AVAILABLE.

MNZ060>063-068>070-030700-
   Twin Cities Metro

CITY           SKY/WX    TMP DP  RH WIND       PRES   REMARKS
TWIN CITIES    MOCLDY    65  53  65 SE8       29.91F
6HR MIN TEMP:  65; 6HR MAX TEMP:  75;

ST PAUL        PTCLDY    62  53  72 S9        29.92S
CRYSTAL        CLOUDY    69  53  56 S13       29.88F
BLAINE         MOCLDY    68  54  60 S10       29.89F
LAKEVILLE      MOCLDY    63  54  72 S9        29.91F
EDEN PRAIRIE   CLOUDY    67  53  61 S10       29.89F
6HR MIN TEMP:  65; 6HR MAX TEMP:  75;

SOUTH ST PAUL  PTCLDY    64  52  64 S5        29.92S
LAKE ELMO      MOCLDY    63  52  67 S10       29.92F
$$
MNZ001>005-007-008-013>017-022>024-027-028-030700-
   Northwest Minnesota

CITY           SKY/WX    TMP DP  RH WIND       PRES   REMARKS
BEMIDJI        CLOUDY    64  55  72 NE3       29.77R
HALLOCK        CLOUDY    61  59  94 N14       29.77S
ROSEAU         CLOUDY    61  55  82 NE9       29.79F HAZE
WARROAD        CLOUDY    57  55  94 NE6       29.81F
THIEF RVR FALL CLOUDY    61  57  88 E14       29.77F
CROOKSTON      TSTM      61  61 100 E12       29.73F
FOSSTON        CLOUDY    59  55  88 CALM      29.76F
DETROIT LAKES  MOCLDY    68  57  68 S14       29.75S
MOORHEAD       PTCLDY    72  61  68 S17G26    29.68R
PARK RAPIDS    CLOUDY    69  51  52 S13G23    29.77S
MAHNOMEN       TSTM      63  60  91 E6        29.75R
$$
MNZ006-009>011-018-025>026-030700-
   North Central Minnesota

CITY           SKY/WX    TMP DP  RH WIND       PRES   REMARKS
BAUDETTE       LGT RAIN  59  57  93 E6        29.80S
FLAG ISLAND    CLOUDY    59  57  94 NE3       29.83R
INTL FALLS     LGT RAIN  58  56  93 SE12      29.83F
6HR MIN TEMP:  57; 6HR MAX TEMP:  61; 6HR PCP:  0.46;

WASKISH        LGT RAIN  59  57  94 E10       29.80F
BIG FORK       CLOUDY    64  54  68 NE6       29.82R
LONGVILLE      CLOUDY    64  54  68 S8        29.81R
GRAND RAPIDS   CLOUDY    61  52  72 SE9       29.83S
CRANE LAKE     CLOUDY    57  55  94 N5        29.91R
ORR            CLOUDY    59  55  88 NW7       29.85R
COOK           CLOUDY    61  54  77 SE5       29.84F
WALKER         FAIR      65  53  63 S9        29.77F THUNDER
$$
MNZ012-019>021-037-030700-
   Northeast Minnesota

CITY           SKY/WX    TMP DP  RH WIND       PRES   REMARKS
DULUTH         MOCLDY    50  40  68 E9        29.89F
6HR MIN TEMP:  50; 6HR MAX TEMP:  61; 6HR PCP: TRACE;

ELY            CLOUDY    61  48  63 SE7       29.87F
HIBBING        LGT RAIN  59  53  80 S6        29.84F
EVELETH        CLOUDY    63  50  63 S16G22    29.86F THUNDER
DULUTH HARBOR  PTCLDY    46  41  81 NE9       29.91F
TWO HARBORS    PTCLDY    52  46  82 NE3       29.89F
SILVER BAY     MOCLDY    52  46  82 CALM      29.90F
GRAND MARAIS     N/A     49  44  83 CALM      29.93S
G MARAIS ARPRT LGT RAIN  50  43  76 CALM      29.96F
$$
MNZ029>031-032-039>041-046>048-054>057-064-030700-
   West Central Minnesota

CITY           SKY/WX    TMP DP  RH WIND       PRES   REMARKS
FERGUS FALLS   PTCLDY    70  57  64 S20G25    29.73S
WHEATON        CLEAR     66  57  72 SE14      29.74S
MORRIS         CLEAR     68  55  64 S17       29.76R
ALEXANDRIA     MOCLDY    67  55  65 S21G28    29.80S
ELBOW LAKE     FAIR      67  56  68 S22G29    29.74F
WADENA         MOCLDY    66  54  63 S17G24    29.78S
GLENWOOD       PTCLDY    66  55  68 S17G25    29.81S
APPLETON       PTCLDY    70  55  60 S13G21    29.76S
BENSON         PTCLDY    66  54  63 S13G23    29.79S
ORTONVILLE     CLEAR     70  61  73 S10       29.74F
MADISON        PTCLDY    70  57  64 S14       29.77F
WILLMAR        FAIR      66  55  68 S10G18    29.84F
$$
MNZ033>034-036-042>043-049>051-058-059-030700-
   Central Minnesota

CITY           SKY/WX    TMP DP  RH WIND       PRES   REMARKS
ST CLOUD       CLOUDY    67  53  61 S13       29.85S
6HR MIN TEMP:  64; 6HR MAX TEMP:  75;

SAUK CENTRE    FAIR      65  55  68 S17       29.81F
PAYNESVILLE    PTCLDY    64  52  67 SE13G24   29.83F
AITKIN         CLOUDY    66  54  63 S12       29.82R
PINE RIVER     CLOUDY    68  54  60 S16       29.84S
BRAINERD       CLOUDY    68  51  54 S14G23    29.83R
STAPLES        CLOUDY    66  52  59 S9        29.80R
LONG PRAIRIE   FAIR      64  54  68 SE20G25   29.80F
LITTLE FALLS   CLOUDY    66  50  55 SE13      29.82F
LITCHFIELD     PTCLDY    66  55  68 SE8       29.84F
BUFFALO        CLOUDY    67  52  58 S10G16    29.87F
MAPLE LAKE     PTCLDY    68  55  64 S9        29.86F
$$
MNZ037-044-045-052-053-030700-
   East Central Minnesota

CITY           SKY/WX    TMP DP  RH WIND       PRES   REMARKS
PRINCETON      MOCLDY    68  54  60 S12G17    29.86F
MORA           MOCLDY    64  52  63 S9        29.87F
CAMBRIDGE      MOCLDY    68  54  60 SE8       29.85F
RUSH CITY      CLOUDY    64  52  67 S7        29.88F
MOOSE LAKE     MOCLDY    63  52  67 S6        29.85F
HINCKLEY       CLOUDY    64  54  68 S10G16    29.87F
CLOQUET        MOCLDY    48  41  76 CALM      29.88F
MCGREGOR       MOCLDY    63  52  67 S12       29.84F
$$
MNZ071>073-080-081-089-090-097-098-030700-
   Southwest Minnesota

CITY           SKY/WX    TMP DP  RH WIND       PRES   REMARKS
MONTEVIDEO     PTCLDY    68  57  68 SW14G23   29.79F
GRANITE FALLS  PTCLDY    66  56  70 SE16G22   29.83F
CANBY          PTCLDY    70  60  71 S12       29.78F
MARSHALL       PTCLDY    68  55  64 S15       29.81F
REDWOOD FALLS  PTCLDY    66  55  67 S16       29.84F
OLIVIA         PTCLDY    64  54  68 S13G18    29.84S
PIPESTONE      CLOUDY    66  59  77 S20       29.83F
WINDOM         PTCLDY    64  55  72 S12       29.88F
WORTHINGTON    PTCLDY    63  54  72 S18       29.87F
JACKSON        PTCLDY    64  55  72 S14G20    29.90F
TRACY          MOCLDY    67  57  71 S15G21    29.82F
SLAYTON        MOCLDY    65  57  76 S15G22    29.86F
$$
MNZ065>067-074>077-082>085-091>093-030700-
   South Central Minnesota

CITY           SKY/WX    TMP DP  RH WIND       PRES   REMARKS
MANKATO        MOCLDY    64  52  63 S15       29.91S
NEW ULM        PTCLDY    64  54  68 S16       29.87F
ST JAMES       PTCLDY    66  57  72 S16       29.90S
FAIRMONT       PTCLDY    63  52  67 S16       29.89F
GLENCOE        MOCLDY    67  56  67 S7        29.88F
FARIBAULT      PTCLDY    63  54  72 S9        29.93S
OWATONNA       CLEAR     64  54  68 S10       29.93F
WASECA         CLEAR     63  52  67 S14       29.94S
ALBERT LEA     CLEAR     63  54  72 S13       29.95S
$$
MNZ078>079-086>088-094>096-030700-
   Southeast Minnesota

CITY           SKY/WX    TMP DP  RH WIND       PRES   REMARKS
ROCHESTER      CLEAR     61  53  75 S13       29.97F
6HR MIN TEMP:  60; 6HR MAX TEMP:  71;

RED WING       CLEAR     63  50  63 SE7       29.92F
STANTON        CLEAR     64  53  68 S7        29.92S
DODGE CENTER   CLEAR     61  54  77 S15       29.95F
WINONA         PTCLDY    61  50  67 SE5       29.98R
AUSTIN         CLEAR     61  54  77 S9        29.96S
PRESTON        CLEAR     56  50  80 S8        29.99S
$$
ABBREVIATIONS USED IN REMARKS
   TC - TEMPERATURES IN CELSIUS
  WCI - WIND CHILL INDEX
   HX - HEAT INDEX
  VSB - VISIBILITY
$$


USA.gov is the U.S. government's official web portal to all federal, state and local government web resources and services.